Dale Hollow Observed Data For Previous 48 Hours

Caption
Day and Hour Reservoir Elevation (behind dam)* Tailwater Elevation (below dam)* Average Hourly Discharge*
1/16/2019 1 AM CST 648.94 516.54 5,675
1/16/2019 2 AM CST 648.92 516.52 5,675
1/16/2019 3 AM CST 648.91 516.51 5,545
1/16/2019 4 AM CST 648.85 516.45 5,545
1/16/2019 5 AM CST 648.85 516.45 5,545
1/16/2019 6 AM CST 648.85 516.55 5,545
1/16/2019 7 AM CST 648.85 516.55 5,675
1/16/2019 8 AM CST 648.82 516.52 5,545
1/16/2019 9 AM CST 648.80 516.50 5,545
1/16/2019 10 AM CST 648.80 516.50 5,675
1/16/2019 11 AM CST 648.80 516.40 5,545
1/16/2019 12 PM CST 648.77 516.47 5,545
1/16/2019 1 PM CST 648.75 516.55 5,725
1/16/2019 2 PM CST 648.75 516.55 5,875
1/16/2019 3 PM CST 648.75 516.45 5,545
1/16/2019 4 PM CST 648.69 516.49 5,575
1/16/2019 5 PM CST 648.69 516.49 5,575
1/16/2019 6 PM CST 648.69 516.49 5,575
1/16/2019 7 PM CST 648.66 516.56 5,575
1/16/2019 8 PM CST 648.64 516.52 5,725
1/16/2019 9 PM CST 648.64 516.48 5,725
1/16/2019 10 PM CST 648.64 516.44 5,725
1/16/2019 11 PM CST 648.64 516.54 5,575
1/17/2019 12 AM CST 648.64 516.54 5,575
1/17/2019 1 AM CST 648.59 516.49 5,725
1/17/2019 2 AM CST 648.59 516.49 5,575
1/17/2019 3 AM CST 648.55 516.45 5,725
1/17/2019 4 AM CST 648.54 516.44 5,575
1/17/2019 5 AM CST 648.54 516.44 5,725
1/17/2019 6 AM CST 648.54 516.34 5,575
1/17/2019 7 AM CST 648.48 516.48 6,025
1/17/2019 8 AM CST 648.48 516.48 5,725
1/17/2019 9 AM CST 648.48 516.48 5,615
1/17/2019 10 AM CST 648.48 516.48 5,465
1/17/2019 11 AM CST 648.45 516.45 5,575
1/17/2019 12 PM CST 648.43 516.43 5,575
1/17/2019 1 PM CST 648.43 516.43 5,575
1/17/2019 2 PM CST 648.43 516.43 5,725
1/17/2019 3 PM CST 648.43 516.43 5,465
1/17/2019 4 PM CST 648.38 516.48 5,490
1/17/2019 5 PM CST 648.38 516.48 5,600
1/17/2019 6 PM CST 648.38 516.48 5,575

Elevations are in feet above sea level. Discharges are in cubic feet per second and are reported at the end of the hour.